Tracking 22454 objects as of 5-Mar-2021
HD Live streaming from Space Station
objects crossing your sky now

COSMOS 2491 DEB

Track COSMOS 2491 DEB now!
10-day predictions


NORAD ID: 44998
Int'l Code: 2013-076T
Perigee: 1,347.4 km
Apogee: 1,513.9 km
Inclination: 82.5 °
Period: 114.3 minutes
Semi major axis: 7801 km
RCS: Unknown
Launch date: December 25, 2013
Source: Commonwealth of Independent States (former USSR) (CIS)
Launch site: PLESETSK MISSILE AND SPACE COMPLEX (PKMTR)

Note: This is SATELLITE DEBRIS
aabbcc
Your satellite tracking list
Your tracking list is empty




NASA's NSSDC Master Catalog

Two Line Element Set (TLE):
1 44998U 13076S   21063.28801755  .00000271  00000-0  14771-2 0  9991
2 44998  82.4641 283.5642 0106704 218.8571 140.4813 12.59857387 53465
Source of the keplerian elements: AFSPC